,,PA_Meas_PMT16A,,PR_Meas_QMR101_102,,RH_Meas_QMH101,,SR_Meas_QMS101,,TA_Meas_QMH101,,GenWind,,GenWind,
time,status,PA,status,PR,status,RH,status,SR,status,TA,status,DirAvg,status,SpdAvg,
2016-12-22, 15:05:04,VALID,918.055,VALID,0,INVALID,127.669,VALID,155.79,VALID,20.4064,VALID,329,VALID,0,
2016-12-22, 15:06:04,VALID,918.019,VALID,0,INVALID,127.776,VALID,167.393,VALID,20.3674,VALID,336,VALID,0,
2016-12-22, 15:07:04,VALID,918.017,VALID,0,INVALID,127.753,VALID,174.914,VALID,20.3479,VALID,324,VALID,0,
2016-12-22, 15:08:04,VALID,918.056,VALID,0,INVALID,127.723,VALID,177.923,VALID,20.3869,VALID,341,VALID,0,
2016-12-22, 15:09:04,VALID,918.029,VALID,0,INVALID,127.791,VALID,179.319,VALID,20.3464,VALID,18,VALID,1.16055,
2016-12-22, 15:10:04,VALID,918.034,VALID,0,INVALID,127.768,VALID,181.79,VALID,20.3479,VALID,354,VALID,1.42578,
2016-12-22, 15:11:04,VALID,918.03,VALID,0,INVALID,127.624,VALID,191.568,VALID,20.3479,VALID,351,VALID,1.12773,
2016-12-22, 15:12:04,VALID,918.019,VALID,0,INVALID,127.563,VALID,203.816,VALID,20.3659,VALID,28,VALID,1.23867,
2016-12-22, 15:13:04,VALID,917.998,VALID,0,INVALID,127.639,VALID,213.056,VALID,20.4439,VALID,355,VALID,0.989844,
2016-12-22, 15:14:04,VALID,918,VALID,0,INVALID,127.563,VALID,216.279,VALID,20.4439,VALID,354,VALID,1.32813,
2016-12-22, 15:15:04,VALID,917.993,VALID,0,INVALID,127.486,VALID,219.18,VALID,20.5024,VALID,348,VALID,0.862109,
2016-12-22, 15:16:04,VALID,917.975,VALID,0,INVALID,127.54,VALID,224.122,VALID,20.5415,65535,65535,
2016-12-22, 16:44:04,VALID,918.568,VALID,0,INVALID,123.797,VALID,174.055,VALID,21.7883,VALID,5,VALID,0,
2016-12-22, 16:45:04,VALID,918.548,VALID,0,INVALID,124.018,VALID,199.303,VALID,21.79,VALID,16,VALID,0,
2016-12-22, 16:46:04,VALID,918.57,VALID,0,INVALID,123.126,VALID,203.923,VALID,21.7883,VALID,358,VALID,0,
2016-12-22, 16:47:04,VALID,918.543,VALID,0,INVALID,123.568,VALID,203.816,VALID,21.7672,VALID,13,VALID,0,
2016-12-22, 16:48:04,VALID,918.547,VALID,0,INVALID,123.972,VALID,213.378,VALID,21.7688,VALID,7,VALID,0,
2016-12-22, 16:49:04,VALID,918.58,VALID,0,INVALID,124.437,VALID,214.882,VALID,21.7672,VALID,356,VALID,0,
2016-12-22, 16:50:04,VALID,918.558,VALID,0,INVALID,124.727,VALID,221.973,VALID,21.8257,VALID,356,VALID,0,
2016-12-22, 16:51:04,VALID,918.542,VALID,0,INVALID,124.628,VALID,221.006,VALID,21.9233,VALID,356,VALID,0,
2016-12-22, 16:52:04,VALID,918.564,VALID,0,INVALID,123.522,VALID,204.89,VALID,21.9818,VALID,21,VALID,0,
2016-12-22, 16:53:04,VALID,918.572,VALID,0,INVALID,122.783,VALID,189.741,VALID,22.0208,VALID,360,VALID,0,
2016-12-22, 16:54:04,VALID,918.573,VALID,0,INVALID,121.769,VALID,199.196,VALID,22.0598,INVALID,360,VALID,0,
2016-12-22, 16:55:04,VALID,918.576,VALID,0,INVALID,123.415,VALID,226.056,VALID,22.1184,VALID,357,VALID,0,
2016-12-22, 16:56:04,VALID,918.574,VALID,0,INVALID,122.607,VALID,249.693,VALID,22.1574,VALID,12,VALID,0,
2016-12-22, 16:57:04,VALID,918.566,VALID,0,INVALID,122.142,VALID,255.495,VALID,22.1981,VALID,15,VALID,0.233594,
2016-12-22, 16:58:04,VALID,918.589,VALID,0,INVALID,121.898,VALID,231.858,VALID,22.2159,VALID,44,VALID,0,
2016-12-22, 16:59:04,VALID,918.568,VALID,0,INVALID,122.173,VALID,220.577,VALID,22.255,VALID,47,VALID,0,
2016-12-22, 17:00:04,VALID,918.585,VALID,0,INVALID,121.532,VALID,212.196,VALID,22.2745,VALID,6,VALID,0,
2016-12-22, 17:01:04,VALID,918.598,VALID,0,INVALID,122.935,VALID,198.229,VALID,22.333,VALID,359,VALID,0,
2016-12-22, 17:02:04,VALID,918.6,VALID,0,INVALID,123.255,VALID,215.634,VALID,22.4306,VALID,38,VALID,0,
2016-12-22, 17:03:04,VALID,918.596,VALID,0,INVALID,117.05,VALID,237.445,VALID,22.4323,VALID,356,VALID,0,
2016-12-22, 17:04:04,VALID,918.629,VALID,0,INVALID,121.014,VALID,230.676,VALID,22.4501,VALID,353,VALID,0,
2016-12-22, 17:05:04,VALID,918.615,VALID,0,INVALID,120.846,VALID,219.61,VALID,22.4501,VALID,357,VALID,0,
2016-12-22, 17:06:04,VALID,918.626,VALID,0,INVALID,121.754,VALID,212.089,VALID,22.5086,VALID,15,VALID,0,
2016-12-22, 17:07:04,VALID,918.625,VALID,0,INVALID,121.479,VALID,190.171,VALID,22.5477,VALID,331,VALID,0,
2016-12-22, 17:08:04,VALID,918.629,VALID,0,INVALID,119.558,VALID,179.749,VALID,22.5867,VALID,356,VALID,0,
2016-12-22, 17:09:04,VALID,918.629,VALID,0,INVALID,116.425,VALID,158.368,VALID,22.5281,VALID,73,VALID,0.00703125,
2016-12-22, 17:12:04,VALID,918.601,VALID,0,INVALID,122.371,VALID,186.088,VALID,22.3152,VALID,56,VALID,0,
2016-12-22, 17:13:04,VALID,918.596,VALID,0,INVALID,122.806,VALID,228.42,VALID,22.2745,VALID,39,VALID,0,
2016-12-22, 17:14:04,VALID,918.598,VALID,0,INVALID,123.438,VALID,244.644,VALID,22.255,VALID,39,VALID,0,
2016-12-22, 17:15:04,VALID,918.609,VALID,0,INVALID,123.896,VALID,251.627,VALID,22.2745,VALID,16,VALID,0,
2016-12-22, 17:16:04,VALID,918.574,VALID,0,INVALID,123.515,VALID,244.106,VALID,22.3347,VALID,16,VALID,0,
2016-12-22, 17:17:04,VALID,918.566,VALID,0,INVALID,122.577,VALID,244.536,VALID,22.2745,VALID,342,VALID,0,
2016-12-22, 17:18:04,VALID,918.53,VALID,0,INVALID,120.9,VALID,283.43,VALID,22.255,VALID,308,VALID,0,
2016-12-22, 17:19:04,VALID,918.498,VALID,0,INVALID,121.876,VALID,347.142,VALID,22.3542,VALID,327,VALID,0,
2016-12-22, 17:20:04,VALID,918.456,VALID,0,INVALID,118.727,VALID,452.22,VALID,22.372,VALID,279,VALID,0,
2016-12-22, 17:21:04,VALID,918.436,VALID,0,INVALID,119.993,VALID,416.334,VALID,22.372,VALID,306,VALID,0,
2016-12-22, 17:22:04,VALID,918.434,VALID,0,INVALID,121.693,VALID,372.498,VALID,22.4306,VALID,51,VALID,0,
2016-12-22, 17:23:04,VALID,918.41,VALID,0,INVALID,123.164,VALID,438.36,VALID,22.5884,VALID,355,VALID,0,
2016-12-22, 17:24:04,VALID,918.38,VALID,0,INVALID,118.78,VALID,409.136,VALID,22.6647,VALID,344,VALID,0,
2016-12-22, 17:25:04,VALID,918.409,VALID,0,VALID,104,VALID,358.209,VALID,22.6079,VALID,337,VALID,0.361328,
2016-12-22, 17:26:04,VALID,918.404,VALID,0,INVALID,117.927,VALID,362.292,VALID,22.5867,VALID,346,VALID,0,
2016-12-22, 17:27:04,VALID,918.403,VALID,0,INVALID,120.824,VALID,324.257,VALID,22.5867,VALID,17,VALID,0,
2016-12-22, 17:28:04,VALID,918.384,VALID,0,INVALID,121.456,VALID,309.108,VALID,22.7233,VALID,1,VALID,0,
2016-12-22, 17:29:04,VALID,918.394,VALID,0,INVALID,119.184,VALID,314.695,VALID,22.8014,VALID,30,VALID,0,
2016-12-22, 17:30:04,VALID,918.384,VALID,0,INVALID,114.816,VALID,302.984,VALID,22.8599,VALID,303,VALID,0,
2016-12-22, 17:31:04,VALID,918.377,VALID,0,VALID,104,VALID,336.613,VALID,22.8209,VALID,245,VALID,0,
2016-12-22, 17:32:04,VALID,918.361,VALID,0,INVALID,110.806,VALID,382.383,VALID,22.7818,VALID,82,VALID,0,
2016-12-22, 17:33:04,VALID,918.354,VALID,0,INVALID,120.153,VALID,319.53,VALID,22.7623,VALID,22,VALID,0,
2016-12-22, 17:34:04,VALID,918.371,VALID,0,INVALID,120.991,VALID,314.803,VALID,22.8599,VALID,350,VALID,0,
2016-12-22, 17:35:04,VALID,918.362,VALID,0,INVALID,117.134,VALID,355.953,VALID,22.9983,VALID,359,VALID,0,
2016-12-22, 17:36:04,VALID,918.338,VALID,0,INVALID,117.5,VALID,366.052,VALID,23.1136,VALID,21,VALID,0,
2016-12-22, 17:37:04,VALID,918.368,VALID,0,INVALID,110.341,VALID,332.96,VALID,23.1331,VALID,342,VALID,0,
2016-12-22, 17:38:04,VALID,918.356,VALID,0,VALID,92.068,VALID,296.215,VALID,23.0551,VALID,295,VALID,0,
2016-12-22, 17:39:04,VALID,918.355,VALID,0,INVALID,109.228,VALID,278.917,VALID,23.016,VALID,358,VALID,0,
2016-12-22, 17:40:04,VALID,918.326,VALID,0,VALID,101.849,VALID,302.554,VALID,23.0373,VALID,115,VALID,0,
2016-12-22, 17:41:04,VALID,918.303,VALID,0,VALID,91.7783,VALID,346.283,VALID,23.0941,VALID,85,VALID,0,
2016-12-22, 17:42:04,VALID,918.31,VALID,0,VALID,101.056,VALID,455.55,VALID,23.0728,VALID,14,VALID,0,
2016-12-22, 17:43:04,VALID,918.256,VALID,0,INVALID,109.411,VALID,413.004,VALID,23.0551,VALID,360,VALID,0.622266,
2016-12-22, 17:44:04,VALID,918.262,VALID,0,VALID,103.221,VALID,324.15,VALID,23.0551,VALID,14,VALID,0,
2016-12-22, 17:45:04,VALID,918.275,VALID,0,VALID,104,VALID,265.165,VALID,23.0941,VALID,34,VALID,0,
2016-12-22, 17:46:04,VALID,918.256,VALID,0,VALID,93.0362,VALID,230.354,VALID,23.1331,VALID,297,VALID,0,
2016-12-22, 17:47:04,VALID,918.217,VALID,0,VALID,97.8465,VALID,213.7,VALID,23.2112,VALID,320,VALID,0,
2016-12-22, 17:48:04,VALID,918.172,VALID,0,VALID,93.2496,VALID,229.602,VALID,23.2112,VALID,324,VALID,0,
2016-12-22, 17:49:04,VALID,918.139,VALID,0,VALID,100.248,VALID,283,VALID,23.1119,VALID,183,VALID,0,
2016-12-22, 17:50:04,VALID,918.112,VALID,0,VALID,104,VALID,348.432,VALID,23.0551,VALID,275,VALID,0.429688,
2016-12-22, 17:51:04,VALID,918.124,VALID,0,INVALID,121.182,VALID,353.696,VALID,23.1119,VALID,192,VALID,0,
2016-12-22, 17:52:04,VALID,918.121,VALID,0,INVALID,111.851,VALID,270.215,VALID,23.2094,VALID,241,VALID,0,
2016-12-22, 17:53:04,VALID,918.068,VALID,0,VALID,102.695,VALID,265.809,VALID,23.1509,VALID,19,VALID,1.40742,
2016-12-22, 17:54:04,VALID,918.078,VALID,0,INVALID,119.276,VALID,269.355,VALID,23.1704,VALID,16,VALID,0,
2016-12-22, 17:55:04,VALID,918.052,VALID,0,INVALID,114.427,VALID,257.107,VALID,23.1899,VALID,305,VALID,0,
2016-12-22, 17:56:04,VALID,918.04,VALID,0,INVALID,113.673,VALID,261.189,VALID,23.1704,INVALID,360,VALID,0,
2016-12-22, 17:57:04,VALID,917.997,VALID,0,VALID,95.9407,VALID,259.148,VALID,23.0924,VALID,305,VALID,0,
2016-12-22, 17:58:04,VALID,917.975,VALID,0,VALID,97.9152,VALID,267.314,VALID,23.0941,VALID,312,VALID,0,
2016-12-22, 17:59:04,VALID,917.978,VALID,0,VALID,98.1515,VALID,321.464,VALID,23.0728,VALID,277,VALID,0,
2016-12-22, 18:00:04,VALID,917.919,VALID,0,INVALID,109.617,VALID,313.836,VALID,23.1314,VALID,331,VALID,0,
2016-12-22, 18:01:04,VALID,917.92,VALID,0,INVALID,112.987,VALID,380.449,VALID,23.229,VALID,32,VALID,0,
2016-12-22, 18:02:04,VALID,917.884,VALID,0,INVALID,116.737,VALID,391.945,VALID,23.307,VALID,15,VALID,0,
2016-12-22, 18:03:04,VALID,917.867,VALID,0,VALID,99.4398,VALID,454.261,VALID,23.4064,VALID,17,VALID,0,
2016-12-22, 18:04:04,VALID,917.875,VALID,0,INVALID,114.359,VALID,374.755,VALID,23.543,VALID,358,VALID,0.117188,
2016-12-22, 18:05:04,VALID,917.847,VALID,0,VALID,97.0232,VALID,351.977,VALID,23.5821,VALID,4,VALID,0.571484,
2016-12-22, 18:06:04,VALID,917.831,VALID,0,VALID,90.3527,VALID,328.555,VALID,23.5608,VALID,11,VALID,0,
2016-12-22, 18:07:04,VALID,917.826,VALID,0,INVALID,112.423,VALID,383.457,VALID,23.5608,VALID,7,VALID,1.03242,
2016-12-22, 18:08:04,VALID,917.84,VALID,0,VALID,97.0308,VALID,489.072,VALID,23.5412,VALID,1,VALID,0.0105469,
2016-12-22, 18:09:04,VALID,917.836,VALID,0,VALID,92.8913,VALID,676.449,VALID,23.6193,VALID,287,VALID,0,
2016-12-22, 18:10:04,VALID,917.852,VALID,0,VALID,88.668,VALID,525.924,VALID,23.6779,VALID,273,VALID,0.467578,
2016-12-22, 18:11:04,VALID,917.83,VALID,0,VALID,89.6514,VALID,759.179,VALID,23.6974,VALID,344,VALID,1.10234,
2016-12-22, 18:12:04,VALID,917.807,VALID,0,VALID,91.2218,VALID,739.303,VALID,23.756,VALID,314,VALID,0,
2016-12-22, 18:13:04,VALID,917.819,VALID,0,VALID,92.5788,VALID,737.906,VALID,23.9316,VALID,314,VALID,0,
2016-12-22, 18:14:04,VALID,917.838,VALID,0,VALID,96.2837,VALID,496.593,VALID,24.283,VALID,7,VALID,0,
2016-12-22, 18:15:04,VALID,917.821,VALID,0,VALID,82.5082,VALID,561.058,VALID,24.3806,VALID,264,VALID,1.15664,
2016-12-22, 18:16:04,VALID,917.817,VALID,0,VALID,87.311,VALID,846.421,VALID,24.2617,VALID,305,VALID,0.0289063,
2016-12-22, 18:17:04,VALID,917.785,VALID,0,VALID,87.6388,VALID,409.136,VALID,24.3611,VALID,19,VALID,0.104687,
2016-12-22, 18:18:04,VALID,917.787,VALID,0,VALID,86.6859,VALID,351.333,VALID,24.4783,VALID,333,VALID,0.0640625,
2016-12-22, 18:19:04,VALID,917.793,VALID,0,VALID,84.6733,VALID,314.803,VALID,24.5759,VALID,7,VALID,0,
2016-12-22, 18:20:04,VALID,917.748,VALID,0,VALID,83.6746,VALID,336.291,VALID,24.5973,VALID,15,VALID,0.829687,
2016-12-22, 18:21:04,VALID,917.768,VALID,0,VALID,84.7266,VALID,362.077,VALID,24.5368,VALID,338,VALID,0.0140625,
2016-12-22, 18:22:04,VALID,917.779,VALID,0,VALID,83.5526,VALID,322.538,VALID,24.3806,VALID,293,VALID,0,
2016-12-22, 18:23:04,VALID,917.771,VALID,0,VALID,86.3428,VALID,356.06,VALID,24.3026,VALID,215,VALID,0,
2016-12-22, 18:24:04,VALID,917.714,VALID,0,VALID,87.3491,VALID,552.247,VALID,24.3611,VALID,191,VALID,0,
2016-12-22, 18:25:04,VALID,917.718,VALID,0,VALID,85.6415,VALID,373.465,VALID,24.5759,VALID,160,VALID,0,
2016-12-22, 18:26:04,VALID,917.675,VALID,0,VALID,80.2822,VALID,374.54,VALID,24.5564,VALID,262,VALID,0.664844,
2016-12-22, 18:27:04,VALID,917.62,VALID,0,VALID,83.0038,VALID,617.249,VALID,24.3806,VALID,13,VALID,0,
2016-12-22, 18:28:04,VALID,917.618,VALID,0,VALID,80.1907,VALID,694.392,VALID,24.1641,VALID,249,VALID,1.97148,
2016-12-22, 18:29:04,VALID,917.58,VALID,0,VALID,84.0787,VALID,685.582,VALID,24.0079,VALID,325,VALID,0,
2016-12-22, 18:30:04,VALID,917.577,VALID,0,VALID,82.6988,VALID,479.617,VALID,24.1464,VALID,282,VALID,0.524609,
2016-12-22, 18:31:04,VALID,917.544,VALID,0,VALID,86.4877,VALID,334.464,VALID,24.1055,VALID,353,VALID,0,
2016-12-22, 18:32:04,VALID,917.561,VALID,0,VALID,84.4141,VALID,410.21,VALID,24.2031,VALID,358,VALID,0.003125,
2016-12-22, 18:33:04,VALID,917.516,VALID,0,VALID,83.545,VALID,558.801,VALID,24.1445,VALID,1,VALID,0.0796875,
2016-12-22, 18:34:04,VALID,917.506,VALID,0,VALID,85.2755,VALID,662.59,VALID,24.1641,VALID,19,VALID,0.0425781,
2016-12-22, 18:35:04,VALID,917.454,VALID,0,VALID,84.6657,VALID,428.26,VALID,24.283,VALID,25,VALID,0.157422,
2016-12-22, 18:36:04,VALID,917.456,VALID,0,VALID,82.8437,VALID,323.29,VALID,24.3398,VALID,23,VALID,0,
2016-12-22, 18:37:04,VALID,917.45,VALID,0,VALID,82.6912,VALID,315.232,VALID,24.3416,VALID,296,VALID,0.16875,
2016-12-22, 18:38:04,VALID,917.431,VALID,0,VALID,82.6912,VALID,335.431,VALID,24.2245,VALID,328,VALID,0.000390625,
2016-12-22, 18:39:04,VALID,917.402,VALID,0,VALID,83.6212,VALID,260.222,VALID,24.2049,VALID,11,VALID,0.136328,
2016-12-22, 18:40:04,VALID,917.414,VALID,0,VALID,82.7293,VALID,230.354,VALID,24.2245,VALID,299,VALID,0,
2016-12-22, 18:41:04,VALID,917.389,VALID,0,VALID,82.0356,VALID,199.948,VALID,24.1836,VALID,3,VALID,0.620313,
2016-12-22, 18:42:04,VALID,917.382,VALID,0,VALID,83.3697,VALID,179.427,VALID,24.1854,VALID,351,VALID,0,
2016-12-22, 18:43:04,VALID,917.379,VALID,0,VALID,83.8957,VALID,174.914,VALID,24.0665,VALID,7,VALID,0.655859,
2016-12-22, 18:44:04,VALID,917.375,VALID,0,VALID,85.0621,VALID,176.741,VALID,24.0878,VALID,15,VALID,0,
2016-12-22, 18:45:04,VALID,917.36,VALID,0,VALID,88.3325,VALID,170.402,VALID,24.0274,INVALID,360,VALID,0,
2016-12-22, 18:46:04,VALID,917.369,VALID,0,VALID,88.0123,VALID,176.311,VALID,24.0274,VALID,48,VALID,0,
2016-12-22, 18:47:04,VALID,917.365,VALID,0,VALID,85.8778,VALID,174.807,VALID,24.0292,VALID,310,VALID,0,
2016-12-22, 18:48:04,VALID,917.319,VALID,0,VALID,84.4141,VALID,165.889,VALID,23.9121,VALID,30,VALID,0,
2016-12-22, 18:56:04,VALID,917.237,VALID,0,VALID,87.7455,VALID,170.402,VALID,23.2502,VALID,305,VALID,0,
2016-12-22, 18:57:04,VALID,917.226,VALID,0,VALID,89.4074,VALID,188.774,VALID,23.268,VALID,26,VALID,0,
2016-12-22, 18:58:04,VALID,917.216,VALID,0,VALID,88.0657,VALID,189.634,VALID,23.3461,VALID,4,VALID,0.00429688,
2016-12-22, 18:59:04,VALID,917.171,VALID,0,VALID,89.4684,VALID,187.485,VALID,23.4259,VALID,289,VALID,0,
2016-12-22, 19:00:04,VALID,917.144,VALID,0,VALID,88.7289,VALID,199.518,VALID,23.4632,VALID,289,VALID,0,
2016-12-22, 19:01:04,VALID,917.157,VALID,0,VALID,94.4617,VALID,260.33,VALID,23.5022,VALID,24,VALID,0,
2016-12-22, 19:02:04,VALID,917.138,VALID,0,VALID,86.9527,VALID,367.879,VALID,23.5821,VALID,169,VALID,0.942187,
2016-12-22, 19:03:04,VALID,917.079,VALID,0,VALID,86.1141,VALID,331.134,VALID,23.6193,VALID,8,VALID,1.01328,
2016-12-22, 19:04:04,VALID,917.089,VALID,0,VALID,85.1612,VALID,306.852,VALID,23.6211,VALID,159,VALID,1.00547,
2016-12-22, 19:05:04,VALID,917.108,VALID,0,VALID,85.0849,VALID,298.257,VALID,23.5022,VALID,13,VALID,3.06406,
2016-12-22, 19:06:04,VALID,917.123,VALID,0,VALID,85.6872,VALID,301.587,VALID,23.4827,VALID,15,VALID,0.602344,
2016-12-22, 19:07:04,VALID,917.185,VALID,0,VALID,88.3706,VALID,321.356,VALID,23.5608,VALID,64,VALID,0.0875,
2016-12-22, 19:08:04,VALID,917.141,VALID,0,VALID,84.5894,VALID,326.299,VALID,23.5821,VALID,268,VALID,1.19102,
2016-12-22, 19:09:04,VALID,917.153,VALID,0,VALID,85.9311,VALID,299.653,VALID,23.6193,VALID,325,VALID,0,
2016-12-22, 19:10:04,VALID,917.099,VALID,0,VALID,88.7289,VALID,306.53,VALID,23.7364,VALID,29,VALID,0.908594,
2016-12-22, 19:11:04,VALID,917.091,VALID,0,VALID,84.8486,VALID,278.81,VALID,23.8163,VALID,285,VALID,0.108203,
2016-12-22, 19:12:04,VALID,917.094,VALID,0,VALID,84.315,VALID,242.495,VALID,23.8358,VALID,190,VALID,0.178906,
2016-12-22, 19:13:04,VALID,917.117,VALID,0,VALID,85.55,VALID,245.288,VALID,23.7968,VALID,21,VALID,1.58945,
2016-12-22, 19:14:04,VALID,917.09,VALID,0,VALID,86.3504,VALID,266.991,VALID,23.7578,VALID,27,VALID,1.30898,
2016-12-22, 19:15:04,VALID,917.037,VALID,0,VALID,86.7773,VALID,292.777,VALID,23.6797,VALID,24,VALID,1.55078,
2016-12-22, 19:16:04,VALID,917.069,VALID,0,VALID,84.9706,VALID,332.638,VALID,23.5608,VALID,8,VALID,1.95195,
2016-12-22, 19:17:04,VALID,917.009,VALID,0,VALID,85.4509,VALID,386.143,VALID,23.504,VALID,19,VALID,4.05547,
2016-12-22, 19:18:04,VALID,917.058,VALID,0,VALID,88.0962,VALID,450.178,VALID,23.4437,VALID,282,VALID,0,
2016-12-22, 19:19:04,VALID,917.048,VALID,0,VALID,87.5168,VALID,517.974,VALID,23.5022,VALID,11,VALID,0.199609,
2016-12-22, 19:20:04,VALID,917.029,VALID,0,VALID,85.2908,VALID,533.016,VALID,23.5608,VALID,23,VALID,0,
2016-12-22, 19:21:04,VALID,917.024,VALID,0,VALID,87.1509,VALID,1075.06,VALID,23.7169,VALID,19,VALID,0,
2016-12-22, 19:22:04,VALID,916.972,VALID,0,VALID,86.3276,VALID,1027.14,VALID,24.0311,VALID,34,VALID,0,
2016-12-22, 19:23:04,VALID,916.987,VALID,0,VALID,85.0087,VALID,898.745,VALID,24.3806,VALID,9,VALID,1.18516,
2016-12-22, 19:24:04,VALID,916.923,VALID,0,VALID,78.7041,VALID,790.874,VALID,24.6345,VALID,351,VALID,0.59375,
2016-12-22, 19:25:04,VALID,916.997,VALID,0,VALID,79.5732,VALID,826.545,VALID,24.5387,VALID,316,VALID,0.319141,
2016-12-22, 19:26:04,VALID,916.952,VALID,0,VALID,75.3651,VALID,875.86,VALID,24.4801,VALID,243,VALID,0.522656,
2016-12-22, 19:27:04,VALID,916.936,VALID,0,VALID,79.1692,VALID,971.161,VALID,24.4197,VALID,309,VALID,0.615625,
2016-12-22, 19:28:04,VALID,916.928,VALID,0,VALID,84.9172,VALID,954.077,VALID,24.5759,VALID,345,VALID,1.04258,
2016-12-22, 19:29:04,VALID,916.89,VALID,0,VALID,81.2885,VALID,826.975,VALID,24.5173,VALID,7,VALID,2.04648,
2016-12-22, 19:30:04,VALID,916.86,VALID,0,VALID,76.5162,VALID,639.705,VALID,24.5759,VALID,348,VALID,0,
2016-12-22, 19:31:04,VALID,916.875,VALID,0,VALID,77.6902,VALID,430.517,VALID,24.5954,VALID,328,VALID,0,
2016-12-22, 19:32:04,VALID,916.835,VALID,0,VALID,79.2835,VALID,528.288,VALID,24.5759,VALID,346,VALID,0.00429688,
2016-12-22, 19:33:04,VALID,916.859,VALID,0,VALID,79.3598,VALID,777.122,VALID,24.654,VALID,322,VALID,0,
2016-12-22, 19:34:04,VALID,916.836,VALID,0,VALID,73.383,VALID,797.106,VALID,24.5954,VALID,297,VALID,0,
2016-12-22, 19:35:04,VALID,916.833,VALID,0,VALID,78.3687,VALID,904.547,VALID,24.7126,VALID,260,VALID,0,
2016-12-22, 19:36:04,VALID,916.81,VALID,0,VALID,75.4642,VALID,359.82,VALID,24.8297,VALID,253,VALID,0.0277344,
2016-12-22, 19:37:04,VALID,916.803,VALID,0,VALID,77.2557,VALID,405.375,VALID,24.9274,VALID,268,VALID,0,
2016-12-22, 19:38:04,VALID,916.822,VALID,0,VALID,77.0194,VALID,854.909,VALID,25.2203,INVALID,360,VALID,0,
2016-12-22, 19:39:04,VALID,916.776,VALID,0,VALID,73.7032,VALID,901.861,VALID,25.4546,VALID,355,VALID,0,
2016-12-22, 19:40:04,VALID,916.727,VALID,0,VALID,72.5216,VALID,841.049,VALID,25.437,VALID,246,VALID,0.0246094,
2016-12-22, 19:41:04,VALID,916.782,VALID,0,VALID,74.2444,VALID,1043.47,VALID,25.316,VALID,268,VALID,0.130078,
2016-12-22, 19:42:04,VALID,916.722,VALID,0,VALID,76.6992,VALID,1082.25,VALID,25.4741,VALID,35,VALID,0,
2016-12-22, 19:43:04,VALID,916.698,VALID,0,VALID,71.5076,VALID,1038.96,VALID,25.8062,VALID,145,VALID,0,
2016-12-22, 19:44:04,VALID,916.694,VALID,0,VALID,71.2789,VALID,668.929,VALID,26.019,VALID,211,VALID,0,
2016-12-22, 19:45:04,VALID,916.689,VALID,0,VALID,71.3171,VALID,694.607,VALID,25.7651,VALID,270,VALID,0.524219,
2016-12-22, 19:46:04,VALID,916.662,VALID,0,VALID,70.4861,VALID,403.656,VALID,25.6284,VALID,214,VALID,0,
2016-12-22, 19:47:04,VALID,916.659,VALID,0,VALID,71.2484,VALID,357.779,VALID,25.6284,VALID,145,VALID,0,
2016-12-22, 19:48:04,VALID,916.602,VALID,0,VALID,70.8292,VALID,340.803,VALID,25.5327,VALID,284,VALID,0,
2016-12-22, 19:49:04,VALID,916.598,VALID,0,VALID,72.7731,VALID,309.753,VALID,25.2007,VALID,272,VALID,0,
2016-12-22, 19:50:04,VALID,916.576,VALID,0,VALID,74.4198,VALID,291.058,VALID,25.0231,VALID,238,VALID,0,
2016-12-22, 19:51:04,VALID,916.566,VALID,0,VALID,73.8785,VALID,320.712,VALID,24.9859,VALID,257,VALID,0,
2016-12-22, 19:52:04,VALID,916.541,VALID,0,VALID,77.0346,VALID,239.916,VALID,24.8688,VALID,249,VALID,0.0417969,
2016-12-22, 19:53:04,VALID,916.573,VALID,0,VALID,78.9328,VALID,187.7,VALID,24.7497,VALID,285,VALID,0,
2016-12-22, 19:58:04,VALID,916.473,VALID,0,VALID,79.5885,VALID,175.237,VALID,24.5564,VALID,36,VALID,0.221484,
2016-12-22, 19:59:04,VALID,916.473,VALID,0,VALID,78.6432,VALID,259.793,VALID,24.4978,VALID,342,VALID,0,
2016-12-22, 20:00:04,VALID,916.456,VALID,0,VALID,77.8656,VALID,247.115,VALID,24.4978,VALID,313,VALID,0,
2016-12-22, 20:01:04,VALID,916.437,VALID,0,VALID,79.9468,VALID,238.09,VALID,24.5173,VALID,360,VALID,0,
2016-12-22, 20:02:04,VALID,916.421,VALID,0,VALID,78.9633,VALID,245.073,VALID,24.5954,VALID,55,VALID,0,
2016-12-22, 20:03:04,VALID,916.401,VALID,0,VALID,79.1616,VALID,241.85,VALID,24.5173,VALID,58,VALID,0,
2016-12-22, 20:04:04,VALID,916.417,VALID,0,VALID,79.9391,VALID,230.461,VALID,24.4978,VALID,51,VALID,0,
2016-12-22, 20:05:04,VALID,916.432,VALID,0,VALID,80.3889,VALID,215.742,VALID,24.5564,VALID,49,VALID,0,
2016-12-22, 20:06:04,VALID,916.408,VALID,0,VALID,78.9786,VALID,206.824,VALID,24.6149,VALID,253,VALID,0,
2016-12-22, 20:07:04,VALID,916.43,VALID,0,VALID,78.8719,VALID,185.873,VALID,24.5564,VALID,253,VALID,0,
2016-12-22, 20:08:04,VALID,916.421,VALID,0,VALID,80.9988,VALID,160.41,VALID,24.5192,VALID,358,VALID,0,
2016-12-22, 20:19:04,VALID,916.353,VALID,0,VALID,85.0545,VALID,153.211,VALID,23.6566,VALID,247,VALID,0,
2016-12-22, 20:20:04,VALID,916.329,VALID,0,VALID,85.9693,VALID,153.426,VALID,23.598,VALID,254,VALID,0,
2016-12-22, 20:51:04,INVALID - VALUE NOT AVAILABLE,0,INVALID - VALUE NOT AVAILABLE,0,INVALID - VALUE NOT AVAILABLE,0,INVALID - VALUE NOT AVAILABLE,0,INVALID - VALUE NOT AVAILABLE,0,INVALID,360,INVALID,0,
2016-12-22, 20:53:04,VALID,916.01,VALID,0,INVALID,122.996,VALID,167.286,VALID,21.7477,VALID,247,VALID,1.16875,
2016-12-22, 20:54:04,VALID,916.021,VALID,0,INVALID,123.431,VALID,181.361,VALID,21.6891,VALID,261,VALID,0.932813,
2016-12-22, 20:55:04,VALID,915.997,VALID,0,INVALID,123.949,VALID,177.063,VALID,21.6501,VALID,254,VALID,0.54375,
2016-12-22, 20:56:04,VALID,915.962,VALID,0.2,INVALID,123.095,VALID,163.203,VALID,21.5526,VALID,251,VALID,1.78398,
2016-12-22, 20:57:04,VALID,916.007,VALID,0,INVALID,124.041,VALID,151.062,VALID,21.4941,VALID,247,VALID,0.987891,
2016-12-22, 20:58:04,VALID,915.974,VALID,0,INVALID,124.262,VALID,158.153,VALID,21.4144,VALID,242,VALID,0.949609,
2016-12-22, 20:59:04,VALID,915.962,VALID,0,INVALID,124.902,VALID,186.518,VALID,21.4567,VALID,262,VALID,0,
2016-12-22, 21:00:04,VALID,915.938,VALID,0,INVALID,125.352,VALID,221.866,VALID,21.4746,VALID,261,VALID,0,
2016-12-22, 21:01:04,VALID,915.935,VALID,0,INVALID,125.946,VALID,246.792,VALID,21.5737,VALID,261,VALID,0,
2016-12-22, 21:02:04,VALID,915.903,VALID,0,INVALID,124.628,VALID,257.214,VALID,21.4941,VALID,256,VALID,2.22148,
2016-12-22, 21:03:04,VALID,915.918,VALID,0,INVALID,124.551,VALID,255.173,VALID,21.5542,VALID,208,VALID,2.2668,
2016-12-22, 21:04:04,VALID,915.904,VALID,0,INVALID,123.614,VALID,244.106,VALID,21.5932,VALID,233,VALID,0.635938,
2016-12-22, 21:05:04,VALID,915.9,VALID,0,INVALID,123.095,VALID,236.048,VALID,21.5737,VALID,249,VALID,1.64688,
2016-12-22, 21:06:04,VALID,915.942,VALID,0,INVALID,122.653,VALID,245.396,VALID,21.5737,VALID,257,VALID,1.28203,